Погода в Моравска-Тршебова

Чехия     49°45′26″N   16°39′38″E
темп.,
°C
ветер,
м/с
пор.,
м/с
влажн.,
%
обл.,
%
осадки,
мм/ч
давл.,
гПа
погр.,
м
23 октября, сб
сб2323:00+7з8146185 0.0 10181130
02:00+6зсз91674100 0.4 10201533
05:00+5зсз713805 0.4 1021737
08:00+4зсз6127954 0.4 1024576
11:00+7зсз7106241 0.0 10251191
14:00+8зсз7105684 0.2 10251606
17:00+7зсз610645 0.2 1026991
20:00+4зсз37825 0.2 1029142
24 октября, вс
вс2423:00+3зсз22891 0.0 103115
02:00+2з119142 0.0 103210
05:00+1з11910 0.0 103210
08:00+1ю1190100 0.0 103310
11:00+6вюв236872 0.0 1033384
14:00+10юв3447100 0.0 1031865
17:00+7вюв356069 0.0 1030128
20:00+4юв22716 0.0 103013
25 октября, пн
пн2523:00+2вюв22745 0.0 103012
02:00+1в22805 0.0 103016
05:000в22835 0.0 103022
08:000в22855 0.0 102928
11:00+8ююв511515 0.0 1027770
14:00+11ю7103948 0.0 1026932
17:00+9ююв48465 0.0 1025208
20:00+4вюв226235 0.0 102610
26 октября, вт
вт2623:00+3вюв227197 0.0 102610
02:00+2вюв2280100 0.0 102610
05:00+1вюв118745 0.0 102610
08:00+1вюв1188100 0.0 102610
11:00+7ююв2464100 0.0 1025476
14:00+10ю2253100 0.0 1023724
17:00+8ю1162100 0.0 102310
20:00+5ююз117498 0.0 102410
27 октября, ср
ср2723:00+4зюз118051 0.0 102510
02:00+3з00835 0.0 102510
05:00+3зсз11845 0.0 102610
08:00+3зсз11855 0.0 102710
11:00+9сз116560 0.0 1027268
14:00+12ссз11564 0.0 1026653
17:00+10с11685 0.0 102612
20:00+7сз11820 0.0 102710